TimeEDT,TemperatureF,Dew PointF,Humidity,Sea Level PressureIn,VisibilityMPH,Wind Direction,Wind SpeedMPH,Gust SpeedMPH,PrecipitationIn,Events,Conditions,WindDirDegrees,DateUTC
12:54 AM,48.0,37.9,68,30.00,-9999.0,WNW,8.1,-,N/A,,Unknown,300,2013-09-24 04:54:00
1:54 AM,48.9,37.9,66,30.00,-9999.0,NW,11.5,-,N/A,,Unknown,310,2013-09-24 05:54:00
2:54 AM,51.1,37.9,61,29.98,-9999.0,WNW,10.4,-,N/A,,Unknown,290,2013-09-24 06:54:00
3:54 AM,50.0,37.9,63,29.97,-9999.0,WNW,11.5,-,N/A,,Unknown,290,2013-09-24 07:54:00
4:54 AM,52.0,37.9,59,29.97,-9999.0,West,11.5,-,N/A,,Unknown,280,2013-09-24 08:54:00
5:54 AM,50.0,37.9,63,29.97,-9999.0,West,11.5,-,N/A,,Unknown,280,2013-09-24 09:54:00
6:54 AM,54.0,37.9,55,29.97,-9999.0,West,11.5,-,N/A,,Unknown,270,2013-09-24 10:54:00
7:54 AM,55.0,39.0,55,29.96,-9999.0,West,10.4,-,N/A,,Unknown,280,2013-09-24 11:54:00
8:54 AM,59.0,41.0,51,29.95,-9999.0,WNW,10.4,-,N/A,,Unknown,290,2013-09-24 12:54:00
9:54 AM,52.0,41.0,66,29.93,-9999.0,West,12.7,18.4,N/A,,Unknown,280,2013-09-24 13:54:00
10:54 AM,54.0,41.0,62,29.91,-9999.0,West,11.5,-,N/A,,Unknown,270,2013-09-24 14:54:00
11:54 AM,57.9,42.1,56,29.90,-9999.0,WNW,9.2,18.4,N/A,,Unknown,300,2013-09-24 15:54:00
12:54 PM,61.0,42.1,50,29.88,-9999.0,NNW,5.8,18.4,N/A,,Unknown,330,2013-09-24 16:54:00
1:54 PM,62.1,41.0,46,29.87,-9999.0,Variable,6.9,17.3,N/A,,Unknown,0,2013-09-24 17:54:00
2:54 PM,64.0,42.1,45,29.85,-9999.0,WNW,5.8,-,N/A,,Unknown,300,2013-09-24 18:54:00
3:54 PM,64.0,41.0,43,29.85,-9999.0,Variable,5.8,-,N/A,,Unknown,0,2013-09-24 19:54:00
4:54 PM,64.0,42.1,45,29.86,-9999.0,NNW,8.1,-,N/A,,Unknown,330,2013-09-24 20:54:00
5:54 PM,61.0,42.1,50,29.87,-9999.0,North,10.4,-,N/A,,Unknown,360,2013-09-24 21:54:00
6:54 PM,59.0,41.0,51,29.89,-9999.0,North,10.4,-,N/A,,Unknown,360,2013-09-24 22:54:00
7:54 PM,54.0,46.0,75,29.92,-9999.0,NE,13.8,18.4,N/A,,Unknown,50,2013-09-24 23:54:00
8:54 PM,53.1,45.0,74,29.93,-9999.0,ENE,8.1,-,N/A,,Unknown,60,2013-09-25 00:54:00
9:54 PM,51.1,45.0,80,29.94,-9999.0,North,5.8,-,N/A,,Unknown,360,2013-09-25 01:54:00
10:54 PM,51.1,43.0,74,29.94,-9999.0,NW,8.1,-,N/A,,Unknown,320,2013-09-25 02:54:00
11:54 PM,50.0,43.0,77,29.94,-9999.0,NNW,6.9,-,N/A,,Unknown,330,2013-09-25 03:54:00